Location: Unspecified
(0.0000°N, 0.0000°E)
Time: 07:25:17
(UTC+00:00)

ATLAS 5 CENTAUR DEB - Pass Details

Date: 07 December 2025
Orbit: 8829 x 35105 km, 13.2° (Epoch: 17 January)

Event Time Altitude Azimuth Distance (km) Brightness Sun altitude
Rises 02:33:29 0° 268° (W) 18,292 ? -44.6°
Reaches altitude 10° 02:49:04 10° 271° (W) 19,092 ? -41.2°
Maximum altitude 14:10:33 72° 192° (SSW) 10,540 ? 49.3°
Drops below altitude 10° 15:02:40 10° 103° (ESE) 13,243 ? 38.3°
Sets 15:13:35 0° 99° (E) 15,051 ? 35.9°
